Track OAO 3 (COPERNICUS) now! 10-day predictions OAO 3 (COPERNICUS) is classified as:
1 6153U 72065A 19050.79794003 +.00000003 +00000-0 +52076-5 0 9997 2 6153 035.0062 172.1992 0006686 018.5462 113.3637 14.57901413470062